Regional Weather Roundup
Issued by NWS

Home | Current Version | Previous Version | Text Only | Print | Product List | Glossary Off
Versions: 1 2 3 4 5 6 7 8 9 10 11 12 13 14 15 16 17 18 19 20 21 22 23 24 25 26 27 28 29 30 31 32 33 34 35 36 37 38 39 40 41 42 43 44 45 46 47 48 49 50

000
ASUS43 KIND 212209
RWRIN

WEATHER ROUNDUP FOR INDIANA
NATIONAL WEATHER SERVICE INDIANAPOLIS IN
600 PM EDT SUN SEP 21 2014

NOTE: "FAIR" INDICATES FEW OR NO CLOUDS BELOW 12,000 FEET WITH NO
SIGNIFICANT WEATHER AND/OR OBSTRUCTIONS TO VISIBILITY.

* - STATION DOES NOT REPORT WEATHER SUCH AS PRECIPITATION OR FOG.

+ - STATION NOT QUALITY CONTROLLED BY THE NATIONAL WEATHER SERVICE.
    USE DATA WITH CAUTION...ESPECIALLY DEWPOINT AND RELATIVE
    HUMIDITY OBSERVATIONS.

INZ001>003-010>013-019-020-212300-
NORTHWEST INDIANA

CITY           SKY/WX    TMP DP  RH WIND       PRES   REMARKS
GARY /AIRPORT/ PTSUNNY   63  52  67 N12G23    29.99R
KNOX *+        PTSUNNY   61  49  65 N16G22    29.97R
LA PORTE +     CLOUDY    58  49  72 N17G24    29.99R
MICHIGAN CITY+ CLOUDY    59  46  63 N15G23    29.99R
MONTICELLO +   CLOUDY    61  52  71 NW13      29.98R
RENSSELAER +   CLOUDY    63  54  72 N8        29.99R
VALPARAISO     CLOUDY    60  49  66 N14       29.99R

$$

LMZ046-743>745-212300-
SOUTHERN LAKE MICHIGAN

STATION/POSITION TIME  TEMP WIND        PRES
                       AIR  DIR/SP/G
                 (UTC) (F)  (DEG/KT/KT) (MB)
MICHIGAN CITY    2200   59  350/ 26/ 32   N/A

$$

INZ004-005-014>016-021>024-212300-
NORTH CENTRAL INDIANA

CITY           SKY/WX    TMP DP  RH WIND       PRES   REMARKS
ELKHART        CLOUDY    57  48  72 NW12G23   29.95
GOSHEN         CLOUDY   N/A N/A N/A NW22G28   29.93R
LOGANSPORT +   PTSUNNY   61  46  59 N17G25    29.98R
PERU/GRISSOM   PTSUNNY   61  54  77 NW14      29.96R
ROCHESTER +    MOSUNNY   63  50  63 NW18G24   29.96R
SOUTH BEND     CLOUDY    59  49  69 N21G29    29.97R
WARSAW +       CLOUDY    59  50  72 NW18G32   29.94R

$$

INZ006>009-017-018-025>027-212300-
NORTHEAST INDIANA

CITY           SKY/WX    TMP DP  RH WIND       PRES   REMARKS
ANGOLA *+      CLOUDY    59  50  72 NW12      29.88R
FORT WAYNE     PTSUNNY   61  50  67 NW17G25   29.91R
HUNTINGTON +   PTSUNNY   61  52  70 NW14G28   29.93R

$$

INZ028-029-035-036-043>045-051>053-212300-
WEST CENTRAL INDIANA

CITY           SKY/WX    TMP DP  RH WIND       PRES   REMARKS
GREENCASTLE +  PTSUNNY   64  48  55 NW12G20   29.99R
LAFAYETTE      CLOUDY    62  51  67 N9        29.99R
TERRE HAUTE    MOSUNNY   69  48  47 NW18G26   29.99R

$$

INZ030>032-037>040-046>048-054>057-064-065-212300-
CENTRAL INDIANA

CITY           SKY/WX    TMP DP  RH WIND       PRES   REMARKS
CP ATTERBURY + MOSUNNY   70  50  49 NW18G28   29.95R
COLUMBUS       PTSUNNY   68  48  49 NW17G26   29.94R
FRANKFORT +    CLOUDY    63  51  66 NW10      29.98R
GREENWOOD *+   PTSUNNY   66  50  55 NW14G25   29.97
INDIANAPOLIS   PTSUNNY   66  48  52 NW23      29.97R
-EAGLE CREEK   CLOUDY    65  47  52 NW15      29.96R
KOKOMO *+      CLOUDY    61  48  63 NW14G26   29.96R
MARION +       CLOUDY    58  50  75 NW9       29.96R
MT COMFORT *+  MOSUNNY   64  41  42 NW15G24   29.97R
SHELBYVILLE    PTSUNNY   69  49  48 NW21G29   29.94R
ZIONSVILLE +   PTSUNNY   65  48  54 NW13G21   29.98R

$$

INZ033-034-041-042-049-050-058-059-212300-
EAST CENTRAL INDIANA

CITY           SKY/WX    TMP DP  RH WIND       PRES   REMARKS
MUNCIE         PTSUNNY   63  48  58 NW15G28   29.93R

$$

INZ060-061-067>069-081>083-085>088-212300-
SOUTHWEST INDIANA

CITY           SKY/WX    TMP DP  RH WIND       PRES   REMARKS
EVANSVILLE     MOSUNNY   77  48  35 W9        29.96R
WASHINGTON +   MOSUNNY   75  48  37 NW18G26   29.95R

$$

INZ062-063-066-070>080-084-089>092-212300-
SOUTH CENTRAL AND SOUTHEAST INDIANA

CITY           SKY/WX    TMP DP  RH WIND       PRES   REMARKS
BLOOMINGTON    MOSUNNY   71  48  43 NW12G20   29.96R

$$




USA.gov is the U.S. government's official web portal to all federal, state and local government web resources and services.